Tracking 30009 objects as of 7-Dec-2024
HD Live streaming from Space Station
objects crossing your sky now

YAOGAN-30 P

Track YAOGAN-30 P now!
10-day predictions


NORAD ID: 44450
Int'l Code: 2019-045B
Perigee: 575.3 km
Apogee: 586.4 km
Inclination: 35.0 °
Period: 96.1 minutes
Semi major axis: 6951 km
RCS: Unknown
Launch date: July 26, 2019
Source: People's Republic of China (PRC)
Launch site: Xichang Space Center, China (XSC)
Your satellite tracking list
Your tracking list is empty




NASA's NSSDC Master Catalog

Two Line Element Set (TLE):
1 44450U 19045B   24342.54649070  .00006854  00000-0  57357-3 0  9999
2 44450  34.9922 111.5109 0007975 256.3314 103.6505 14.97802675292998
Source of the keplerian elements: AFSPC